Location: *
(37.9500°N, 27.3666°E)
Time: 23:20:18
(UTC+00:00)

Cosmos 614 Rocket - Pass Details

Date: 29 May 2022
Orbit: 732 x 764 km, 74.1° (Epoch: 01 July)

Event Time Altitude Azimuth Distance (km) Brightness Sun altitude
Rises 01:32:05 0° 320° (NW) 3,221 7.3 -13.6°
Reaches altitude 10° 01:35:33 10° 296° (WNW) 2,295 6.2 -13.1°
Maximum altitude 01:38:12 14° 265° (W) 2,014 5.7 -12.7°
Enters shadow 01:38:50 14° 257° (WSW) 2,030 5.7 -12.6°
